Miscellaneous Local Product
Issued by NWS North Platte, NE

Home | Current Version | Previous Version | Text Only | Print | Product List | Glossary On
Versions: 1 2 3 4 5 6 7 8 9 10 11 12 13 14 15 16 17 18 19 20 21 22 23 24 25 26 27 28 29 30 31 32 33 34 35 36 37 38 39 40 41 42 43 44 45 46 47 48 49 50
000
AXUS43 KLBF 310210
MISLBF


WESTERN AND NORTH CENTRAL NEBRASKA HOURLY WEATHER ROUNDUP
NATIONAL WEATHER SERVICE NORTH PLATTE NE
900 PM CDT THU JUL 30 2015

***STATIONS NOT REPORTING VARIABLES SUCH AS SKY/WEATHER OR
PRESSURE ARE PROVIDED BY THE NEBRASKA DEPARTMENT OF
ROADS...RAWS...AND APRS NETWORKS...AND ARE NOT UNDER
NATIONAL WEATHER SERVICE QUALITY CONTROL***

...OBSERVATIONS IN AND NEAR THE EASTERN PANHANDLE OF NEBRASKA...

CITY           SKY/WX    TMP DP  RH WIND       PRES   REMARKS
PINE RIDGE     CLEAR     75  53  46 NE6       30.20S
CHADRON        CLEAR     80  51  36 E5        30.19R
ALLIANCE       CLEAR     76  53  44 NE7       30.22R
SIDNEY         CLEAR     75  61  61 SE7       30.26R
BIG SPRINGS      N/A     74  64  70 CALM        N/A
$$

...OBSERVATIONS IN NORTH CENTRAL NEBRASKA...

CITY           SKY/WX    TMP DP  RH WIND       PRES   REMARKS
VALENTINE      CLEAR     82  49  31 N6        30.17R
THEDFORD       PTCLDY    77  60  56 SW7       30.19S
AINSWORTH      CLEAR     76  60  57 E6        30.17R
O`NEILL        CLOUDY    82  66  58 CALM      30.13S
ORD            PTCLDY    77  66  68 S6        30.11S
BROKEN BOW     MOCLDY    78  68  71 CALM      30.15S
SPRINGVIEW       N/A     81  54  38 CALM        N/A
CHAMBERS         N/A     78  58  50 CALM        N/A
EWING            N/A     77  67  71 CALM        N/A
$$

...OBSERVATIONS IN SOUTHWEST NEBRASKA AND FAR NORTHEAST COLORADO...

CITY           SKY/WX    TMP DP  RH WIND       PRES   REMARKS
WRAY           FAIR      76  59  54 SW9       30.23R
IMPERIAL       CLOUDY    81  58  45 E7        30.19R
OGALLALA       MOCLDY    71  64  76 N13       30.21R
NORTH PLATTE   CLOUDY    74  64  71 E5        30.17R
MCCOOK         MOCLDY    80  63  55 SE7       30.16R
LEXINGTON      MOCLDY    78  67  69 SE5       30.16S
PAXTON           N/A     75  64  70 NW3         N/A
BRADY            N/A     78  65  64 CALM        N/A
CALLAWAY         N/A     74  68  82 E3          N/A
$$

...NORTH PLATTE AREA...

CITY           SKY/WX    TMP DP  RH WIND       PRES   REMARKS
AIRPORT        CLOUDY    74  64  71 E5        30.17R
DOWNTOWN         N/A     81  61  50 CALM        N/A
HILLCREST        N/A     80  60  50 SE3         N/A
$$

...SOME WEATHER OBSERVATIONS FROM AROUND THE REGION...

CITY           SKY/WX    TMP DP  RH WIND       PRES   REMARKS
DENVER         PTCLDY    82  50  32 E10       30.26S
LARAMIE        CLEAR     73  39  29 SE12      30.41S
CHEYENNE       CLEAR     76  42  29 NE8       30.35R
SCOTTSBLUFF    CLEAR     77  52  41 NE9       30.21S
RAPID CITY     CLEAR     79  48  33 SW3       30.19F
PIERRE         CLEAR     77  53  43 NE9       30.08R
WINNER         FAIR      79  56  45 E7        30.13R
SIOUX FALLS    PTCLDY    76  61  59 W3        30.09S
OMAHA          PTCLDY    80  71  74 CALM      30.10S
GRAND ISLAND   PTCLDY    78  67  68 S5        30.14S
KANSAS CITY    PTCLDY    74  64  71 CALM      30.14S
WICHITA        PTCLDY    79  69  71 E8        30.14R
HAYS           CLEAR     79  64  61 SE9       30.16R
LIBERAL        CLOUDY    79  66  65 E8        30.19R
GOODLAND       PTCLDY    73  60  63 SW5       30.26R
$$



USA.gov is the U.S. government's official web portal to all federal, state and local government web resources and services.